TimePDT,TemperatureF,Dew PointF,Humidity,Sea Level PressureIn,VisibilityMPH,Wind Direction,Wind SpeedMPH,Gust SpeedMPH,PrecipitationIn,Events,Conditions,WindDirDegrees,DateUTC
12:55 AM,57.9,53.1,84,29.81,10.0,East,5.8,-,N/A,,Clear,90,2013-09-23 07:55:00
1:55 AM,57.9,52.0,81,29.80,10.0,ENE,4.6,-,N/A,,Clear,70,2013-09-23 08:55:00
2:55 AM,57.0,51.1,81,29.79,10.0,ENE,4.6,-,N/A,,Clear,70,2013-09-23 09:55:00
3:55 AM,57.0,51.1,81,29.78,10.0,ENE,3.5,-,N/A,,Clear,60,2013-09-23 10:55:00
4:55 AM,55.9,50.0,80,29.78,10.0,NE,5.8,-,N/A,,Clear,40,2013-09-23 11:55:00
5:55 AM,55.9,50.0,80,29.79,10.0,NE,3.5,-,N/A,,Clear,40,2013-09-23 12:55:00
6:55 AM,57.0,50.0,77,29.81,10.0,Calm,Calm,-,N/A,,Clear,0,2013-09-23 13:55:00
7:55 AM,66.0,53.1,63,29.83,10.0,Calm,Calm,-,N/A,,Clear,0,2013-09-23 14:55:00
8:55 AM,72.0,52.0,49,29.84,10.0,Calm,Calm,-,N/A,,Clear,0,2013-09-23 15:55:00
9:55 AM,78.1,51.1,39,29.85,10.0,Calm,Calm,-,N/A,,Clear,0,2013-09-23 16:55:00
10:55 AM,82.0,48.9,31,29.84,10.0,Variable,3.5,-,N/A,,Clear,0,2013-09-23 17:55:00
11:55 AM,84.9,46.0,26,29.84,10.0,Variable,4.6,-,N/A,,Clear,0,2013-09-23 18:55:00
12:55 PM,82.9,46.9,28,29.84,10.0,West,8.1,-,N/A,,Clear,270,2013-09-23 19:55:00
1:55 PM,81.0,50.0,34,29.83,10.0,WNW,9.2,-,N/A,,Clear,290,2013-09-23 20:55:00
2:55 PM,81.0,46.0,29,29.83,10.0,West,10.4,-,N/A,,Clear,270,2013-09-23 21:55:00
3:55 PM,81.0,46.9,30,29.83,10.0,West,5.8,-,N/A,,Clear,270,2013-09-23 22:55:00
4:55 PM,82.0,46.0,28,29.84,10.0,WNW,5.8,-,N/A,,Clear,290,2013-09-23 23:55:00
5:55 PM,81.0,44.1,27,29.83,10.0,WNW,4.6,-,N/A,,Clear,300,2013-09-24 00:55:00
6:55 PM,73.9,48.0,40,29.84,10.0,WNW,4.6,-,N/A,,Partly Cloudy,290,2013-09-24 01:55:00
7:55 PM,66.9,48.9,52,29.86,10.0,Calm,Calm,-,N/A,,Partly Cloudy,0,2013-09-24 02:55:00
8:55 PM,63.0,45.0,52,29.88,10.0,Calm,Calm,-,N/A,,Clear,0,2013-09-24 03:55:00
9:55 PM,66.9,54.0,63,29.89,10.0,NNW,3.5,-,N/A,,Clear,340,2013-09-24 04:55:00
10:55 PM,66.0,57.0,73,29.89,10.0,Calm,Calm,-,N/A,,Clear,0,2013-09-24 05:55:00
11:55 PM,61.0,48.9,64,29.88,10.0,NE,4.6,-,N/A,,Clear,40,2013-09-24 06:55:00